Probability
0 0 0 0 0 0 0 0 0 0 0 0 0 0 0 0 0 0 0 0 0 0 0 0 0 0 0 0 0 0 0 0 0 0 0 0 0 0 0 0 0 0 0
0 0 0 0 0 0 0 0 0 0 0 0 0 0 0 0 0 0 0 0 0 0 0 0 0 0 0 0 0 0 0 0 0 0 0 0 0 0 0 0 0 0 0
3 0 0 0 0 0 0 0 0 0 0 0 0 0 0 0 0 0 0 0 0 0 0 0 0 0 0 0 0 0 0 0 0 0 0 0 0 0 0 0 0 0 0
3 0 0 0 0 0 0 0 0 0 0 0 0 0 0 0 0 0 0 0 0 0 0 0 0 0 0 0 0 0 0 0 0 0 0 0 0 0 0 0 0 0 0
0 6 3 0 0 0 0 0 0 0 0 0 0 0 0 0 0 0 0 0 0 0 0 0 0 0 0 0 0 0 0 0 0 0 0 0 0 0 0 0 0 0 0
0 0 6 0 0 3 0 3 3 0 0 0 0 0 0 0 0 0 0 0 0 0 0 0 0 0 0 0 0 0 0 0 0 0 0 0 0 0 0 0 0 0 0
0 0 0 6 0 0 0 0 3 3 3 3 0 3 3 3 0 0 0 0 0 0 0 0 0 0 0 0 0 0 0 0 0 0 0 0 0 0 0 0 0 0 0
0 0 0 3 3 3 0 0 3 3 3 3 3 3 6 3 0 0 0 0 0 0 0 0 0 0 0 0 0 0 0 0 0 0 0 0 0 0 0 0 0 0 0
0 0 0 0 3 3 3 0 0 0 0 0 0 3 0 0 0 0 0 0 0 0 0 0 0 0 0 0 0 0 0 0 0 0 0 0 0 0 0 0 0 0 0
0 0 0 0 3 3 3 0 0 0 0 0 0 0 3 0 0 0 0 0 0 0 0 0 0 0 0 0 0 0 0 0 0 0 0 0 0 0 0 0 0 0 0
3 3 3 0 0 0 0 0 0 0 0 0 0 0 0 0 0 0 0 0 0 0 0 0 0 0 0 0 0 0 0 0 0 0 0 0 0 0 0 0 0 0 0
0 0 0 0 0 0 0 0 0 0 0 0 0 0 0 0 0 0 0 0 0 0 0 0 0 0 0 0 0 0 0 0 0 0 0 0 0 0 0 0 0 0 0
0 0 0 0 0 0 0 0 0 0 0 0 0 0 0 0 0 0 0 0 0 0 0 0 0 0 0 0 0 0 0 0 0 0 0 0 0 0 0 0 0 0 0
0 0 0 0 0 0 0 0 0 0 0 0 0 0 0 0 0 0 0 0 0 0 0 0 0 0 0 0 0 0 0 0 0 0 0 0 0 0 0 0 0 0 0
0 0 0 0 0 0 0 0 0 0 0 0 0 0 0 0 0 0 0 0 0 0 0 0 0 0 0 0 0 0 0 0 0 0 0 0 0 0 0 0 0 0 0
0 0 0 0 0 0 0 0 0 0 0 0 0 0 0 0 0 0 0 0 0 0 0 0 0 0 0 0 0 0 0 0 0 0 0 0 0 0 0 0 0 0 0
0 0 0 0 0 0 0 0 0 0 0 0 0 0 0 0 0 0 0 0 0 0 0 0 0 0 0 0 0 0 0 0 0 0 0 0 0 0 0 0 0 0 0
0 0 0 0 0 0 0 0 0 0 0 0 0 0 0 0 0 0 0 0 0 0 0 0 0 0 0 0 0 0 0 0 0 0 0 0 0 0 0 0 0 0 0
3 0 0 0 0 0 0 0 0 0 0 0 0 0 0 0 0 0 0 0 0 0 0 0 0 0 0 0 0 0 0 0 0 0 0 0 0 0 0 0 0 0 0
3 3 3 3 0 0 0 0 0 0 0 0 0 0 0 0 0 0 0 0 0 0 0 0 0 0 0 0 0 0 0 0 0 0 0 0 0 0 0 0 0 0 0
0 0 0 3 0 0 0 0 0 0 0 0 0 0 0 0 0 0 0 0 0 0 0 0 0 0 0 0 0 0 0 0 0 0 0 0 0 0 0 0 0 0 0
0 0 0 0 0 0 0 0 0 0 0 0 0 0 0 0 0 0 0 0 0 0 0 0 0 0 0 0 0 0 0 0 0 0 0 0 0 0 0 0 0 0 0
0 0 0 0 0 0 0 0 0 0 0 0 0 0 0 0 0 0 0 0 0 0 0 0 0 0 0 0 0 0 0 0 0 0 0 0 0 0 0 0 0 0 0
0 0 0 0 0 0 0 0 0 0 0 0 0 0 0 0 0 0 0 0 0 0 0 0 0 0 0 0 0 0 0 0 0 0 0 0 0 0 0 0 0 0 0
0 0 0 0 0 0 0 0 0 0 0 0 0 0 0 0 0 0 0 0 0 0 0 0 0 0 0 0 0 0 0 0 0 0 0 0 0 0 0 0 0 0 0
0 0 0 0 0 0 0 0 0 0 0 0 0 0 0 0 0 0 0 0 0 0 0 0 0 0 0 0 0 0 0 0 0 0 0 0 0 0 0 0 0 0 0
Height
5831 5831 5830 5829 5828 5827 5826 5825 5824 5823 5822 5821 5821 5820 5819 5818 5818 5817 5816 5816 5815 5815 5814 5813 5813 5812 5812 5811 5809 5808 5807 5807 5806 5805 5804 5803 5802 5801 5800 5799 5799 5798 5797
5828 5827 5826 5825 5824 5824 5823 5822 5821 5820 5819 5818 5817 5816 5815 5815 5814 5813 5813 5812 5811 5811 5810 5810 5809 5809 5808 5807 5806 5805 5804 5803 5802 5801 5801 5800 5799 5798 5797 5796 5795 5794 5793
5824 5823 5823 5822 5821 5820 5819 5818 5817 5816 5815 5814 5813 5812 5811 5811 5810 5809 5808 5808 5807 5806 5806 5805 5805 5805 5804 5804 5803 5802 5800 5799 5798 5798 5797 5796 5795 5794 5793 5792 5791 5790 5789
5820 5819 5819 5818 5817 5816 5815 5814 5813 5812 5810 5809 5809 5808 5807 5806 5805 5805 5804 5803 5803 5802 5802 5801 5801 5800 5800 5800 5799 5798 5796 5795 5794 5793 5793 5791 5790 5789 5789 5788 5787 5786 5785
5816 5815 5814 5814 5812 5812 5811 5810 5808 5807 5806 5805 5804 5803 5802 5801 5801 5800 5799 5798 5798 5797 5797 5796 5796 5795 5795 5795 5794 5793 5792 5791 5790 5789 5788 5787 5786 5785 5784 5783 5782 5781 5780
5811 5811 5810 5809 5808 5807 5806 5805 5804 5802 5801 5800 5799 5798 5797 5796 5795 5794 5793 5793 5792 5792 5792 5791 5791 5790 5790 5789 5789 5788 5787 5786 5785 5784 5783 5782 5781 5780 5779 5777 5777 5776 5774
5806 5806 5805 5804 5803 5802 5801 5800 5799 5797 5796 5794 5793 5792 5791 5790 5789 5788 5787 5787 5786 5786 5786 5785 5785 5785 5784 5784 5783 5782 5781 5780 5779 5779 5777 5776 5775 5774 5773 5772 5771 5770 5768
5801 5800 5800 5799 5798 5797 5796 5795 5793 5792 5790 5789 5788 5787 5785 5784 5783 5782 5780 5780 5779 5779 5779 5779 5779 5778 5778 5778 5777 5776 5775 5774 5773 5773 5771 5770 5769 5768 5767 5766 5764 5763 5763
5795 5794 5794 5793 5792 5791 5790 5789 5787 5786 5785 5783 5782 5781 5779 5778 5776 5774 5773 5773 5772 5772 5772 5772 5771 5771 5771 5771 5770 5770 5769 5768 5767 5766 5765 5764 5762 5761 5760 5759 5758 5757 5756
5789 5788 5788 5787 5786 5785 5784 5783 5781 5780 5778 5777 5776 5774 5773 5771 5769 5768 5767 5766 5766 5765 5765 5764 5764 5764 5764 5764 5763 5763 5763 5762 5761 5760 5759 5758 5756 5755 5754 5753 5752 5751 5750
5783 5782 5781 5780 5780 5779 5778 5776 5775 5773 5772 5771 5769 5768 5766 5764 5763 5761 5760 5759 5758 5758 5757 5757 5757 5757 5756 5756 5756 5756 5755 5755 5754 5753 5752 5751 5750 5749 5748 5747 5746 5744 5743
5776 5775 5774 5773 5773 5772 5771 5770 5768 5767 5765 5764 5762 5761 5759 5757 5756 5755 5753 5752 5751 5751 5750 5750 5750 5749 5749 5749 5749 5749 5748 5748 5747 5746 5745 5744 5743 5743 5742 5740 5739 5738 5736
5768 5768 5767 5766 5766 5765 5764 5763 5761 5760 5758 5757 5755 5754 5752 5751 5749 5747 5746 5745 5745 5744 5744 5743 5743 5743 5742 5742 5742 5741 5741 5740 5740 5739 5738 5738 5737 5736 5735 5734 5733 5731 5730
5760 5760 5760 5759 5759 5758 5757 5756 5754 5753 5751 5750 5748 5746 5745 5743 5741 5740 5739 5738 5738 5737 5737 5737 5736 5736 5735 5735 5734 5734 5733 5732 5732 5731 5731 5730 5729 5729 5728 5727 5726 5725 5724
5752 5752 5752 5752 5751 5750 5749 5748 5747 5745 5743 5742 5741 5739 5737 5736 5734 5732 5731 5731 5730 5730 5730 5730 5729 5729 5728 5728 5727 5726 5726 5725 5724 5724 5723 5723 5722 5721 5721 5720 5719 5718 5717
5744 5744 5744 5744 5743 5742 5741 5740 5739 5738 5736 5734 5733 5731 5730 5728 5726 5725 5724 5724 5723 5723 5722 5722 5722 5722 5721 5720 5720 5719 5718 5717 5717 5716 5716 5715 5715 5714 5713 5712 5711 5710 5709
5736 5736 5736 5735 5734 5733 5733 5732 5731 5730 5728 5726 5725 5723 5722 5720 5719 5718 5717 5716 5716 5715 5715 5715 5714 5714 5713 5712 5712 5711 5710 5709 5709 5708 5708 5708 5707 5706 5706 5705 5704 5703 5701
5727 5727 5727 5726 5726 5724 5724 5723 5722 5721 5720 5718 5717 5715 5714 5712 5711 5710 5709 5709 5708 5708 5707 5707 5706 5706 5705 5704 5704 5703 5702 5701 5700 5700 5700 5699 5699 5698 5698 5697 5696 5695 5694
5719 5719 5718 5717 5716 5715 5715 5714 5713 5712 5711 5710 5708 5707 5705 5704 5703 5702 5701 5701 5700 5700 5700 5699 5698 5698 5697 5697 5696 5695 5695 5694 5693 5692 5692 5691 5691 5690 5689 5689 5688 5687 5686
5710 5709 5709 5708 5707 5706 5706 5705 5704 5703 5702 5701 5700 5699 5697 5695 5694 5694 5693 5693 5692 5692 5692 5691 5690 5690 5689 5689 5688 5687 5687 5686 5685 5685 5684 5683 5682 5682 5681 5680 5679 5679 5678
5700 5699 5699 5698 5697 5697 5696 5695 5695 5694 5693 5692 5691 5690 5689 5688 5687 5686 5685 5685 5684 5684 5683 5683 5682 5682 5681 5681 5680 5679 5679 5678 5678 5677 5676 5675 5674 5673 5673 5672 5671 5670 5669
5689 5689 5688 5688 5687 5687 5686 5685 5685 5685 5684 5683 5683 5682 5681 5680 5679 5678 5677 5677 5677 5676 5676 5675 5675 5674 5673 5673 5672 5672 5671 5671 5670 5669 5668 5667 5666 5665 5664 5664 5663 5662 5661
5679 5678 5678 5677 5677 5677 5676 5676 5675 5675 5675 5674 5674 5673 5673 5672 5671 5670 5670 5669 5669 5668 5668 5668 5667 5667 5666 5666 5665 5664 5663 5663 5662 5661 5660 5659 5658 5657 5656 5655 5655 5653 5653
5668 5667 5667 5666 5666 5666 5666 5666 5665 5665 5665 5665 5665 5665 5664 5664 5663 5662 5662 5661 5661 5661 5660 5660 5660 5659 5658 5658 5657 5656 5655 5654 5653 5652 5651 5650 5649 5648 5648 5647 5646 5645 5644
5657 5656 5656 5655 5655 5655 5655 5655 5655 5655 5656 5656 5656 5656 5656 5655 5655 5654 5654 5653 5653 5653 5652 5652 5652 5651 5650 5650 5649 5648 5647 5646 5644 5643 5642 5641 5640 5640 5639 5638 5637 5636 5635
5646 5645 5645 5644 5644 5644 5645 5645 5645 5646 5646 5647 5647 5647 5647 5647 5647 5646 5646 5645 5645 5644 5644 5644 5644 5643 5642 5641 5641 5639 5638 5637 5636 5635 5633 5632 5631 5630 5629 5629 5628 5628 5626
Wind_Speed
14 13 13 13 13 13 13 13 13 13 13 13 13 13 13 13 13 13 13 13 13 13 13 13 13 13 13 13 13 14 14 13 13 13 13 13 13 13 13 13 13 14 14
14 14 14 14 14 14 14 14 14 14 14 14 14 14 14 14 14 14 14 15 15 15 15 15 14 15 14 14 14 14 14 14 14 14 14 14 14 14 14 14 15 15 15
15 15 15 15 15 15 15 15 15 15 16 16 16 15 15 15 15 15 15 16 16 16 16 16 16 16 15 15 15 15 15 15 15 15 15 15 15 15 15 15 15 15 15
16 16 16 16 16 16 16 16 17 17 17 17 17 16 16 16 16 16 17 17 17 17 17 17 17 16 16 16 16 16 16 16 16 16 16 15 16 16 16 16 16 16 16
17 17 17 17 17 17 17 17 18 18 18 18 18 18 18 18 18 18 18 18 18 18 18 18 18 18 17 17 17 17 17 17 17 17 17 17 16 16 17 17 17 17 17
17 17 18 18 18 18 19 19 19 19 19 19 19 19 19 19 19 20 20 20 20 19 19 19 19 19 18 18 18 18 18 18 18 18 18 18 18 18 18 18 18 18 18
19 19 19 19 19 19 19 19 20 20 20 19 19 20 20 20 20 20 21 21 21 20 20 20 20 19 19 19 19 19 19 19 19 19 19 19 18 19 19 19 19 19 19
20 20 19 20 20 20 20 21 21 21 20 20 20 21 21 21 21 22 22 22 22 22 22 22 22 21 21 20 20 19 20 20 20 20 20 20 20 20 20 20 20 20 19
21 21 21 21 21 21 22 22 22 21 21 21 21 22 23 23 23 22 22 22 22 22 22 22 23 23 22 22 21 20 20 20 20 20 20 21 21 21 20 20 20 20 19
22 22 22 22 22 22 22 22 23 22 22 22 22 23 24 24 23 23 22 23 23 23 22 22 22 23 23 23 22 21 21 21 21 21 21 22 22 21 20 20 21 21 21
23 23 23 22 22 23 23 23 23 23 23 23 24 24 24 24 23 23 23 23 23 22 22 22 22 22 22 23 23 23 22 22 22 22 22 22 21 21 20 20 21 21 21
24 24 23 23 23 24 24 24 24 24 24 24 24 24 24 24 24 24 23 22 22 22 21 21 21 22 22 23 23 24 24 23 22 22 22 21 21 21 20 20 21 21 21
26 26 25 24 24 25 25 25 25 24 25 25 25 25 25 24 24 24 23 22 22 22 22 22 22 22 22 23 23 24 24 23 23 23 22 22 21 22 22 21 21 21 21
27 27 26 26 25 25 26 25 25 25 25 25 25 25 25 25 25 24 23 23 23 22 22 22 23 23 23 23 23 23 24 24 24 23 23 23 22 22 22 22 22 22 22
28 27 27 27 27 26 26 26 26 26 26 26 26 26 26 25 24 24 23 23 23 22 22 23 23 23 23 23 23 23 24 24 24 23 23 23 23 23 23 22 22 22 22
28 28 27 28 27 27 27 27 27 27 27 27 27 27 26 26 25 24 24 23 23 23 23 23 24 24 24 24 23 24 24 24 24 23 23 23 23 23 23 23 24 24 24
29 28 28 29 28 28 27 27 27 27 27 27 27 27 27 26 25 25 25 24 24 24 24 24 24 24 24 23 23 24 23 24 24 23 23 23 23 23 24 23 24 24 24
30 29 29 29 29 28 27 27 28 28 28 28 27 27 27 26 25 25 25 25 24 23 24 24 24 24 24 24 23 23 23 22 23 23 23 24 24 24 24 23 24 24 24
30 30 30 30 30 30 29 29 29 28 28 28 27 26 26 26 26 26 26 26 24 24 24 24 24 24 24 24 24 24 23 23 23 23 23 24 25 25 25 24 24 24 24
31 30 30 31 31 30 29 29 29 28 28 27 26 25 25 25 26 26 25 25 24 23 24 24 24 25 25 25 24 24 23 23 23 23 23 24 24 25 25 26 26 25 25
32 31 31 31 31 31 30 29 29 29 28 27 26 26 25 24 24 25 25 24 24 23 23 24 24 24 24 24 24 24 24 23 24 24 24 24 24 25 25 25 26 25 25
32 31 31 31 31 31 31 30 29 29 28 28 27 26 25 24 24 24 24 23 23 23 23 23 23 23 24 23 23 24 24 24 24 25 25 25 25 26 26 26 25 25 25
32 32 32 32 32 32 32 30 30 30 29 29 28 26 25 24 24 24 24 24 23 24 24 23 23 23 23 23 24 24 24 25 25 25 25 26 26 27 27 27 27 26 26
33 33 33 33 33 33 33 32 31 30 30 28 27 26 26 26 25 25 25 24 24 24 24 23 23 24 24 24 24 25 25 25 25 26 27 27 27 28 28 28 28 27 27
33 33 33 32 33 33 33 32 31 30 29 28 28 27 26 26 26 25 25 25 25 24 24 24 24 24 24 24 25 26 26 26 27 27 27 28 28 28 29 28 28 28 28
33 33 33 32 32 31 31 29 29 29 30 29 28 27 27 26 26 26 26 26 25 25 25 24 24 25 25 25 26 26 27 27 27 27 27 28 28 28 28 28 28 28 28
Wind_Direction
293 294 295 298 299 299 299 301 302 302 301 300 300 298 298 297 296 294 293 295 292 288 288 289 290 293 297 299 301 303 303 303 301 302 303 304 304 303 301 299 297 295 293
292 292 292 295 297 297 297 298 298 298 298 298 296 295 294 294 295 294 292 292 288 284 284 284 286 289 292 295 298 300 300 300 300 299 298 299 300 300 298 298 297 296 293
289 290 291 293 295 295 296 296 296 296 295 295 294 291 291 291 293 294 293 292 287 285 283 283 284 286 288 292 294 297 297 296 295 295 294 293 295 296 294 295 296 295 295
286 287 288 291 293 294 296 297 296 295 294 292 291 290 290 291 291 292 293 293 289 287 285 284 285 284 286 289 292 295 295 294 291 291 291 293 294 295 294 294 294 293 294
284 284 286 290 293 293 296 297 297 296 294 292 289 289 290 290 290 290 291 290 287 286 285 284 284 284 285 287 290 293 294 293 291 290 291 293 295 295 294 293 293 294 293
283 284 284 288 291 293 295 297 297 296 294 293 291 289 289 289 289 289 289 288 285 282 282 282 281 281 284 286 288 290 292 292 292 291 292 291 292 293 292 292 293 294 294
283 283 284 286 291 294 296 297 297 296 294 293 291 290 290 289 289 289 288 286 283 280 280 280 279 279 281 284 286 288 289 290 291 290 290 291 292 293 292 292 294 295 295
282 281 283 286 289 291 294 296 295 294 293 292 290 291 291 291 290 288 286 284 282 280 279 279 278 276 278 281 282 286 287 288 288 288 288 289 290 292 293 293 294 294 294
281 282 284 286 288 290 292 294 294 292 292 292 291 290 291 291 291 289 286 284 282 280 279 279 278 276 276 277 280 282 284 286 286 286 287 289 290 290 291 291 292 293 292
283 284 284 285 288 290 292 294 295 293 292 291 290 290 290 290 290 287 286 286 284 280 278 279 278 277 277 276 278 280 281 284 286 286 287 289 289 288 287 288 290 292 292
282 284 284 284 287 290 291 294 294 293 292 292 291 291 291 290 288 287 287 287 285 282 279 278 279 278 278 277 278 280 281 282 284 286 287 289 289 287 286 287 289 290 291
280 281 284 284 286 288 291 293 293 293 293 292 291 291 291 290 289 288 286 285 285 283 280 278 279 279 279 278 278 280 281 281 282 285 286 287 286 286 285 285 287 290 290
279 279 282 284 286 287 289 291 291 291 291 291 290 291 291 290 287 286 284 283 282 281 280 279 279 280 281 281 280 281 282 281 281 283 285 284 283 284 285 285 286 289 289
278 279 279 281 284 286 288 289 289 290 290 291 291 290 291 290 288 285 283 281 281 281 280 279 280 280 280 282 283 282 282 282 282 283 283 283 282 283 283 282 284 286 288
278 279 279 279 281 284 286 288 288 289 289 290 290 290 289 289 288 284 283 282 281 281 281 279 279 281 282 283 284 284 284 283 282 282 281 281 282 283 285 285 286 287 288
278 279 279 279 280 283 285 286 287 287 288 289 290 289 288 288 286 283 282 282 282 281 280 280 280 281 282 283 284 284 285 285 283 282 279 279 281 283 285 286 286 287 288
278 279 279 279 279 281 283 285 287 287 288 289 290 288 287 286 284 282 281 281 282 280 280 281 281 281 281 283 284 286 286 285 283 280 278 278 280 281 283 285 285 285 286
276 279 279 278 277 280 282 285 287 287 288 288 289 288 286 285 283 281 280 279 280 280 281 281 281 280 281 282 284 286 286 285 283 280 278 278 280 281 282 283 285 284 284
276 278 279 278 276 279 281 282 285 287 287 287 287 287 285 284 282 280 280 279 279 278 280 280 279 279 279 280 282 284 284 284 282 281 279 279 279 279 280 282 284 284 284
277 278 279 277 276 278 280 282 283 284 286 286 286 285 284 283 281 279 278 279 278 279 280 280 278 278 279 279 280 281 282 283 281 281 280 281 282 282 282 282 284 285 284
277 277 278 277 276 277 278 281 282 283 284 285 286 286 284 283 282 280 278 278 279 278 278 279 279 279 279 279 280 280 280 282 281 281 282 283 284 284 283 284 285 285 284
276 276 277 277 276 275 277 280 279 279 280 282 283 283 283 283 283 280 278 278 278 278 279 280 281 282 280 279 278 280 280 281 281 282 282 282 284 283 283 284 285 286 285
274 274 275 276 276 275 275 278 277 277 278 279 280 280 280 282 283 282 281 279 279 279 280 281 281 281 281 279 280 281 282 282 282 283 283 283 283 284 284 284 285 285 284
273 273 274 274 275 275 274 275 275 275 275 275 277 278 278 280 281 281 281 280 280 280 280 281 281 280 280 280 281 282 283 283 283 283 284 284 283 283 284 284 285 285 282
273 273 273 273 274 274 273 272 271 272 272 272 273 274 275 277 279 280 279 279 279 279 278 279 281 281 281 282 282 282 284 284 284 283 283 284 284 283 283 283 283 283 282
273 273 273 273 273 271 271 270 269 269 270 271 271 272 273 275 277 277 277 276 276 277 278 279 280 281 281 282 283 284 284 284 284 284 284 285 284 283 283 283 282 281 281